Location: Dumpton Point
(51.3500°N, 1.4433°E)
Time: 11:40:52
(UTC+00:00)

Envisat - Pass Details

Date: 10 December 2021
Orbit: 764 x 766 km, 98.2° (Epoch: 23 January)

Event Time Altitude Azimuth Distance (km) Brightness Sun altitude
Rises 06:45:52 0° 4° (N) 3,247 6.0 -9.1°
Reaches altitude 10° 06:48:49 10° 347° (NNW) 2,316 5.1 -8.7°
Maximum altitude 06:52:14 18° 305° (NW) 1,796 4.3 -8.2°
Drops below altitude 10° 06:55:38 10° 263° (W) 2,306 5.0 -7.7°
Sets 06:58:34 0° 245° (WSW) 3,227 5.9 -7.3°
